Terminal Aerodrome Forecast
Issued by NWS

Home | Current Version | Previous Version | Text Only | Print | Product List | Glossary On
Versions: 1 2 3 4 5 6 7 8 9 10 11 12 13 14 15 16 17
000
FTAK31 PAJN 291735
TAFAJN
TAF
PAJN 291735Z 2918/3018 VRB04KT P6SM -SHRA SCT006 BKN060
      TEMPO 2918/2920 6SM -SHRA SCT006 OVC010
     FM292000 VRB05KT P6SM -SHRA FEW010 BKN040 OVC070
     FM292200 25007KT P6SM BKN050 BKN080
     FM300300 VRB05KT P6SM SCT050 BKN080
     FM301600 VRB05KT P6SM -SHRA SCT020 BKN035=

USA.gov is the U.S. government's official web portal to all federal, state and local government web resources and services.